| time (UTC) | temp C | wind direction | speed KPH | gust KPH | rain 1hr cm | rain 24hr cm | rain mn cm | humidity % | barometer mb |
| 20260505023210 | 21 | 214 | 4.8 | 8.0 | 0.00 | 0.00 | 0.00 | 19 | 1010.3 |
| 20260505022210 | 21 | 222 | 9.7 | 14.5 | 0.00 | 0.00 | 0.00 | 18 | 1010.1 |
| 20260505021229 | 22 | 225 | 4.8 | 6.4 | 0.00 | 0.00 | 0.00 | 17 | 1010.2 |
| 20260505020312 | 22 | 228 | 9.7 | 16.1 | 0.00 | 0.00 | 0.00 | 17 | 1010.0 |
| 20260505015326 | 22 | 228 | 8.0 | 12.9 | 0.00 | 0.00 | 0.00 | 16 | 1009.8 |
| 20260505014313 | 22 | 236 | 9.7 | 14.5 | 0.00 | 0.00 | 0.00 | 16 | 1009.8 |
| 20260505013412 | 22 | 232 | 20.9 | 35.4 | 0.00 | 0.00 | 0.00 | 16 | 1009.8 |
| 20260505011430 | 22 | 228 | 9.7 | 16.1 | 0.00 | 0.00 | 0.00 | 17 | 1009.9 |
| 20260505011328 | 22 | 221 | 8.0 | 16.1 | 0.00 | 0.00 | 0.00 | 17 | 1010.0 |
| 20260505010311 | 22 | 207 | 11.3 | 16.1 | 0.00 | 0.00 | 0.00 | 17 | 1010.0 |
| 20260505005410 | 22 | 217 | 14.5 | 20.9 | 0.00 | 0.00 | 0.00 | 16 | 1010.0 |
| 20260505004426 | 22 | 217 | 12.9 | 20.9 | 0.00 | 0.00 | 0.00 | 17 | 1009.9 |
| 20260505003512 | 22 | 225 | 17.7 | 24.1 | 0.00 | 0.00 | 0.00 | 17 | 1009.9 |
| 20260505002528 | 22 | 231 | 17.7 | 30.6 | 0.00 | 0.00 | 0.00 | 18 | 1009.9 |
| 20260505001610 | 22 | 228 | 16.1 | 27.4 | 0.00 | 0.00 | 0.00 | 18 | 1009.9 |
| 20260505000629 | 22 | 221 | 17.7 | 29.0 | 0.00 | 0.00 | 0.00 | 20 | 1010.0 |
| 20260504235612 | 23 | 236 | 19.3 | 30.6 | 0.00 | 0.00 | 0.00 | 20 | 1009.9 |
| 20260504235529 | 23 | 233 | 16.1 | 25.7 | 0.00 | 0.00 | 0.00 | 20 | 1009.9 |
| 20260504234511 | 23 | 229 | 19.3 | 30.6 | 0.00 | 0.00 | 0.00 | 21 | 1009.8 |
| 20260504233527 | 23 | 233 | 19.3 | 30.6 | 0.00 | 0.00 | 0.00 | 22 | 1009.8 |
| 20260504232527 | 24 | 223 | 8.0 | 12.9 | 0.00 | 0.00 | 0.00 | 23 | 1009.8 |
| 20260504230511 | 23 | 216 | 14.5 | 22.5 | 0.00 | 0.00 | 0.00 | 24 | 1009.7 |
| 20260504230412 | 23 | 227 | 12.9 | 22.5 | 0.00 | 0.00 | 0.00 | 24 | 1009.8 |
| 20260504225410 | 23 | 234 | 14.5 | 22.5 | 0.00 | 0.00 | 0.00 | 25 | 1009.8 |
| 20260504224510 | 23 | 245 | 14.5 | 29.0 | 0.00 | 0.00 | 0.00 | 25 | 1009.8 |
| 20260504223511 | 24 | 242 | 16.1 | 20.9 | 0.00 | 0.00 | 0.00 | 24 | 1009.7 |
| 20260504223426 | 24 | 209 | 14.5 | 19.3 | 0.00 | 0.00 | 0.00 | 24 | 1009.7 |
| 20260504222425 | 24 | 229 | 22.5 | 30.6 | 0.00 | 0.00 | 0.00 | 24 | 1009.9 |
| 20260504221413 | 24 | 237 | 17.7 | 25.7 | 0.00 | 0.00 | 0.00 | 25 | 1009.7 |
| 20260504220510 | 24 | 238 | 17.7 | 32.2 | 0.00 | 0.00 | 0.00 | 24 | 1009.8 |
| 20260504215528 | 24 | 234 | 16.1 | 22.5 | 0.00 | 0.00 | 0.00 | 23 | 1009.9 |
| 20260504215426 | 24 | 232 | 22.5 | 33.8 | 0.00 | 0.00 | 0.00 | 24 | 1009.9 |
| 20260504214511 | 24 | 233 | 20.9 | 33.8 | 0.00 | 0.00 | 0.00 | 23 | 1009.9 |
| 20260504213528 | 24 | 210 | 20.9 | 33.8 | 0.00 | 0.00 | 0.00 | 22 | 1010.0 |
| 20260504212511 | 24 | 249 | 12.9 | 19.3 | 0.00 | 0.00 | 0.00 | 22 | 1009.9 |
| 20260504211527 | 24 | 222 | 14.5 | 27.4 | 0.00 | 0.00 | 0.00 | 22 | 1010.4 |
| 20260504210512 | 25 | 217 | 14.5 | 19.3 | 0.00 | 0.00 | 0.00 | 21 | 1010.4 |
| 20260504205511 | 24 | 218 | 8.0 | 12.9 | 0.00 | 0.00 | 0.00 | 21 | 1010.4 |
| 20260504204610 | 24 | 225 | 14.5 | 24.1 | 0.00 | 0.00 | 0.00 | 21 | 1010.4 |
| 20260504204526 | 24 | 222 | 19.3 | 29.0 | 0.00 | 0.00 | 0.00 | 21 | 1010.6 |
| 20260504203613 | 24 | 275 | 11.3 | 20.9 | 0.00 | 0.00 | 0.00 | 22 | 1010.5 |
| 20260504202710 | 24 | 255 | 12.9 | 25.7 | 0.00 | 0.00 | 0.00 | 22 | 1010.6 |
| 20260504201727 | 24 | 255 | 14.5 | 20.9 | 0.00 | 0.00 | 0.00 | 23 | 1010.5 |
| 20260504200712 | 24 | 247 | 12.9 | 22.5 | 0.00 | 0.00 | 0.00 | 23 | 1010.6 |
| 20260504200626 | 24 | 244 | 17.7 | 27.4 | 0.00 | 0.00 | 0.00 | 23 | 1010.5 |
| 20260504195712 | 23 | 247 | 6.4 | 16.1 | 0.00 | 0.00 | 0.00 | 25 | 1010.5 |
| 20260504193910 | 24 | 205 | 14.5 | 20.9 | 0.00 | 0.00 | 0.00 | 25 | 1010.7 |
| 20260504193812 | 24 | 223 | 16.1 | 22.5 | 0.00 | 0.00 | 0.00 | 25 | 1010.7 |
| 20260504192811 | 24 | 224 | 19.3 | 27.4 | 0.00 | 0.00 | 0.00 | 26 | 1010.7 |
| 20260504191909 | 24 | 238 | 17.7 | 22.5 | 0.00 | 0.00 | 0.00 | 25 | 1010.7 |
| 20260504190926 | 25 | 207 | 14.5 | 22.5 | 0.00 | 0.00 | 0.00 | 24 | 1010.9 |
| 20260504190811 | 25 | 182 | 11.3 | 20.9 | 0.00 | 0.00 | 0.00 | 24 | 1010.8 |
| 20260504185910 | 25 | 211 | 16.1 | 25.7 | 0.00 | 0.00 | 0.00 | 23 | 1010.7 |
| 20260504184928 | 26 | 101 | 1.6 | 6.4 | 0.00 | 0.00 | 0.00 | 22 | 1010.9 |
| 20260504183911 | 25 | 191 | 12.9 | 20.9 | 0.00 | 0.00 | 0.00 | 21 | 1011.3 |
| 20260504181010 | 25 | 127 | 4.8 | 9.7 | 0.00 | 0.00 | 0.00 | 26 | 1011.5 |
| 20260504180929 | 25 | 121 | 6.4 | 12.9 | 0.00 | 0.00 | 0.00 | 26 | 1011.5 |
| 20260504175927 | 24 | 22 | 4.8 | 9.7 | 0.00 | 0.00 | 0.00 | 28 | 1011.5 |
| 20260504174926 | 24 | 104 | 3.2 | 8.0 | 0.00 | 0.00 | 0.00 | 28 | 1011.8 |
| 20260504173913 | 24 | 98 | 0.0 | 3.2 | 0.00 | 0.00 | 0.00 | 30 | 1011.9 |
| 20260504172928 | 23 | 157 | 0.0 | 1.6 | 0.00 | 0.00 | 0.00 | 30 | 1011.9 |
| 20260504171946 | 23 | 157 | 1.6 | 6.4 | 0.00 | 0.00 | 0.00 | 32 | 1011.9 |
| 20260504171030 | 23 | 191 | 3.2 | 6.4 | 0.00 | 0.00 | 0.00 | 32 | 1012.0 |
| 20260504160329 | 22 | 157 | 6.4 | 12.9 | 0.00 | 0.00 | 0.00 | 36 | 1012.2 |
| 20260504160249 | 22 | 160 | 1.6 | 11.3 | 0.00 | 0.00 | 0.00 | 37 | 1012.2 |
| 20260504150231 | 20 | 83 | 3.2 | 6.4 | 0.00 | 0.00 | 0.00 | 43 | 1012.1 |
| 20260504141230 | 15 | 292 | 0.0 | 0.0 | 0.00 | 0.00 | 0.00 | 56 | 1012.7 |
| 20260504140245 | 15 | 292 | 0.0 | 1.6 | 0.00 | 0.00 | 0.00 | 57 | 1012.8 |
| 20260504110429 | 16 | 344 | 1.6 | 1.6 | 0.00 | 0.00 | 0.00 | 54 | 1012.0 |
| 20260504081829 | 16 | 296 | 3.2 | 6.4 | 0.00 | 0.00 | 0.00 | 48 | 1012.5 |
| 20260504060145 | 20 | 270 | 3.2 | 6.4 | 0.00 | 0.00 | 0.00 | 38 | 1012.1 |
| 20260504045423 | 20 | 81 | 3.2 | 11.3 | 0.00 | 0.00 | 0.00 | 36 | 1012.1 |
| 20260504044439 | 20 | 66 | 6.4 | 11.3 | 0.00 | 0.00 | 0.00 | 36 | 1011.9 |
| 20260504043440 | 20 | 111 | 1.6 | 4.8 | 0.00 | 0.00 | 0.00 | 34 | 1012.4 |
| 20260504042423 | 20 | 80 | 3.2 | 11.3 | 0.00 | 0.00 | 0.00 | 34 | 1011.6 |
| 20260504042325 | 21 | 138 | 1.6 | 11.3 | 0.00 | 0.00 | 0.00 | 34 | 1011.6 |
| 20260504042223 | 21 | 21 | 3.2 | 11.3 | 0.00 | 0.00 | 0.00 | 34 | 1011.5 |
| 20260504041223 | 21 | 107 | 0.0 | 3.2 | 0.00 | 0.00 | 0.00 | 32 | 1011.6 |
| 20260504040223 | 21 | 67 | 0.0 | 1.6 | 0.00 | 0.00 | 0.00 | 32 | 1011.5 |
| 20260504035240 | 21 | 74 | 6.4 | 9.7 | 0.00 | 0.00 | 0.00 | 32 | 1011.4 |
| 20260504034239 | 22 | 27 | 9.7 | 17.7 | 0.00 | 0.00 | 0.00 | 32 | 1011.2 |
| 20260504034122 | 22 | 31 | 6.4 | 12.9 | 0.00 | 0.00 | 0.00 | 32 | 1011.1 |
| 20260504033222 | 22 | 62 | 8.0 | 12.9 | 0.00 | 0.00 | 0.00 | 32 | 1011.1 |
| 20260504030424 | 22 | 63 | 6.4 | 12.9 | 0.00 | 0.00 | 0.00 | 32 | 1010.7 |
| 20260504025423 | 22 | 64 | 17.7 | 27.4 | 0.00 | 0.00 | 0.00 | 31 | 1010.6 |
| 20260504024439 | 23 | 56 | 6.4 | 12.9 | 0.00 | 0.00 | 0.00 | 30 | 1010.5 |
| 20260504023524 | 23 | 62 | 14.5 | 19.3 | 0.00 | 0.00 | 0.00 | 28 | 1010.4 |